Back to catalog

ZHIJIANG-2

AliveScienceSSO
NORAD 63983·PAYLOAD·🇨🇳 China
This satellite name has not been confirmed by official sources yet.

Launched May 14, 2025 from Jiuquan Satellite Launch Center

Loading…

Next Passes (next 24 hours)

TLE

FreshSource: Space-Track

Epoch: Sep 14, 2026, 12:47 UTC

1 63983U 25100B   26257.53288344  .00026168  00000-0  58411-3 0  9991
2 63983  97.3556 335.2670 0007008 336.9073  23.1859 15.43503318 74673

Track ZHIJIANG-2 in real time with AllMySat

Download on the App Store